SL-8 DEB, 23007

Orbit data source: Space-Track

SL-8 DEB, 23007 is space debris in LEO originally from a launch on Wed, 16 Jun 1993 UTC launched from the Plesetsk Missile And Space Complex (PKMTR). Debris objects in space refer to the collection of defunct objects orbiting the Earth. Examples of debris include non-operational satellites, rocket bodies, and fragments generated from explosions, collisions, or faulty payload assembly.

Loading next visibility...
Identifier
23007, 1993-036C
Orbit
LEO
Country
Flag of CISCIS
Related business
Manufacturer
Unknown
Mission
Spacecraft
Bus & Motor
Unknown
Mass
Unknown
Launch date (UTC)
1993-06-16 (33 years ago)
Launch vehicle
Unknown
Launch site
Plesetsk Missile And Space Complex (PKMTR)
Object type
Payload
Rocket body
Debris
Shape & HBR
Unknown shape, 0.1 m
Radar Cross Section
Medium (>0.1 m² and <1 m²)

Expand to show TLE details & history
Last TLE update: 16 hours ago

TLE from 16 hours ago
0 SL-8 DEB
1 23007U 93036C   26175.07986014  .00000947  00000-0  25910-3 0  9999
2 23007  74.0246 101.4755 0009232  47.2832 332.1028 14.48558415731074
Epoch: 2026-06-24T01:54Z
TLE epoch observation values (Epoch: 2026-06-24T01:54:59.916Z)
Latitude
18.56348°
Longitude
165.97097°
Altitude
726.661 km
Speed
7.497 km/s
True Right ascension
07h 07m 51s
True Declination
18° 27' 34"
Sunlit
Object was in daylight at epoch
Visualization orbit readout
Latitude
Unknown
Longitude
Unknown
Altitude
Unknown
Speed
Unknown
Apparent Right ascension
Unknown
Apparent Declination
Unknown
Sunlit
N/A
Visualization observer readout
Local Sidereal Time
04:43:40
Azimuth
Unknown
Elevation
Unknown
Doppler factor
Unknown
Orbital elements
Apogee altitude
734.532 km
Perigee altitude
721.412 km
Semi-major axis
7,106.109 km
Eccentricity
0.00092
Inclination
74.0246°
RAAN
101.4755°
Arg. of periapsis
47.2832°
True anomaly
332.05325°
Mean anomaly
332.1028°
Eccentric anomaly
332.07803°
Mean motion
3.62323 °/min
Orbital period
99.36 mins
BSTAR
0.0002591

Documentation

Showing up to 5 results
|